ELEVATION-1

导读

ELEVATION-1(高程1号)是由美国XDLINX空间实验室与Almagest Space Corporation联合研发的6U技术试验通信卫星,于2025年1月14日搭乘SpaceX猎鹰9号火箭在范登堡基地发射,进入太阳同步轨道。该卫星承载全球首个小型化航天级E波段通信载荷,旨在验证E波段通信技术,为Almagest未来低轨超高通量星座构建传播模型,有望推动天基通信实现百Gbps级光纤级传输速率突破。

基本信息
目录编号:
62677
目录名称:
ELEVATION-1
国际标识:
2025-009BW
轨道中心:
EARTH
卫星名称:
ELEVATION-1
卫星全名:
ELEVATION-1
卫星状态:
在轨 (已飞行599 天)
发射日期:
2025-01-14 UTC
国别 :
英国 (GB)
星等 :
--
轨道信息
数据来源 国际轨道数据
星历时间: 2026-09-04T20:21:50+0800
19小时前
查看轨道信息
半长轴: 6806.716km
偏心率: 0.0003607
轨道倾角: 97.376°
近地点辐角 46.203°
升交点赤经 333.882°
平近点角 313.952°
近地点: 426.123km
远地点: 431.035km
周期: 93.146分钟
每日圈数: 15.459533
详细信息
使用方式:
暂无
2D轨道图
3D轨道图
轨道高度分析图
轨道倾角分析图
轨道综合分析图
查看轨道综合分析图